Location: Newark
(52.3500°N, 175.9667°E)
Time: 14:23:40
(UTC+00:00)

ISS - Pass Details

Date: 09 March 2021
Orbit: 418 x 422 km, 51.6° (Epoch: 13 April)

Event Time Altitude Azimuth Distance (km) Brightness Sun altitude
Exits shadow 16:22:46 30° 140° (SE) 789 -2.3 -21.8°
Drops below altitude 10° 16:24:35 11° 124° (ESE) 1,458 -0.6 -21.6°
Sets 16:26:49 0° 118° (ESE) 2,358 0.6 -21.2°
